User: anonymous   Login
Location: Bridgewater Hill Observatory
(43.5992°N, 72.6989°W)
Time: 20:27:10
(UTC-04:00)
Language:

Cosmos 1452 Rocket - Orbit

View from above orbital plane
View from above orbital plane
View from above satellite
View from above satellite

Ground track
Ground track

The orbit data is extracted from the following two-line orbital elements,

1 13992U 83031B   15238.94019091 +.00000056 +00000-0 +28173-4 0  9997
2 13992 074.0539 138.0050 0006138 280.5373 157.5230 14.35963736693746
Epoch (UTC): 26 August 2015 22:33:52
Eccentricity: 0.0006138
inclination: 74.0539°
perigee height: 767 km
apogee height: 776 km
right ascension of ascending node: 138.0050°
argument of perigee: 280.5373°
revolutions per day: 14.35963736
mean anomaly at epoch: 157.5230°
orbit number at epoch: 69374

The dashed part of the orbit path shows where the satellite is in the earth's shadow,  

DLR